Time,TemperatureF,DewpointF,PressureIn,WindDirection,WindDirectionDegrees,WindSpeedMPH,WindSpeedGustMPH,Humidity,HourlyPrecipIn,Conditions,Clouds,dailyrainin,SoftwareType,DateUTC
2013-01-06 00:00:00,36.0,33.6,30.28,SE,134,0.0,0.0,91,0.00,,,0.01,meteohub,2013-01-06 06:00:00,
2013-01-06 00:05:00,35.8,33.4,30.28,SE,134,0.0,0.0,91,0.00,,,0.00,meteohub,2013-01-06 06:05:00,
2013-01-06 00:10:00,35.8,33.4,30.28,SE,134,0.0,0.0,91,0.00,,,0.00,meteohub,2013-01-06 06:10:00,
2013-01-06 00:16:00,35.6,33.3,30.28,SE,134,0.0,0.0,91,0.00,,,0.00,meteohub,2013-01-06 06:16:00,
2013-01-06 00:21:00,35.4,33.1,30.28,SE,134,0.0,0.0,91,0.00,,,0.00,meteohub,2013-01-06 06:21:00,
2013-01-06 00:26:00,35.2,32.9,30.28,SE,134,0.0,0.0,91,0.00,,,0.00,meteohub,2013-01-06 06:26:00,
2013-01-06 00:31:00,35.1,32.7,30.28,SE,134,0.0,0.0,91,0.00,,,0.00,meteohub,2013-01-06 06:31:00,
2013-01-06 00:37:00,35.1,32.7,30.27,SE,134,0.0,0.0,91,0.00,,,0.00,meteohub,2013-01-06 06:37:00,
2013-01-06 00:42:00,34.9,32.5,30.27,SE,134,0.0,0.0,91,0.00,,,0.00,meteohub,2013-01-06 06:42:00,
2013-01-06 00:47:00,34.9,32.5,30.27,SE,134,0.0,0.0,91,0.00,,,0.00,meteohub,2013-01-06 06:47:00,
2013-01-06 00:52:00,34.7,32.4,30.27,SE,134,0.0,0.0,91,0.00,,,0.00,meteohub,2013-01-06 06:52:00,
2013-01-06 00:57:00,34.5,32.2,30.27,SE,134,0.0,0.0,91,0.00,,,0.00,meteohub,2013-01-06 06:57:00,
2013-01-06 01:03:00,34.5,32.2,30.28,SE,134,0.0,0.0,91,0.00,,,0.00,meteohub,2013-01-06 07:03:00,
2013-01-06 01:08:00,34.5,32.2,30.28,SE,134,0.0,0.0,91,0.00,,,0.00,meteohub,2013-01-06 07:08:00,
2013-01-06 01:13:00,34.3,32.0,30.28,SE,134,0.0,0.0,91,0.00,,,0.00,meteohub,2013-01-06 07:13:00,
2013-01-06 01:18:00,34.3,32.0,30.28,SE,134,0.0,0.0,91,0.00,,,0.00,meteohub,2013-01-06 07:18:00,
2013-01-06 01:23:00,34.2,31.8,30.28,SE,134,0.0,0.0,91,0.00,,,0.00,meteohub,2013-01-06 07:23:00,
2013-01-06 01:29:00,34.0,31.6,30.28,SE,134,0.0,0.0,91,0.00,,,0.00,meteohub,2013-01-06 07:29:00,
2013-01-06 01:34:00,33.8,31.5,30.28,SE,134,0.0,0.0,91,0.00,,,0.00,meteohub,2013-01-06 07:34:00,
2013-01-06 01:39:00,33.6,31.3,30.28,SE,134,0.0,0.0,91,0.00,,,0.00,meteohub,2013-01-06 07:39:00,
2013-01-06 01:44:00,33.6,31.3,30.28,SE,134,0.0,0.0,91,0.00,,,0.00,meteohub,2013-01-06 07:44:00,
2013-01-06 01:49:00,33.4,31.1,30.28,SE,134,0.0,0.0,91,0.00,,,0.00,meteohub,2013-01-06 07:49:00,
2013-01-06 01:55:00,33.4,31.3,30.29,SE,134,0.0,0.0,92,0.00,,,0.00,meteohub,2013-01-06 07:55:00,
2013-01-06 02:00:00,33.3,31.1,30.29,SE,134,0.0,0.0,92,0.00,,,0.00,meteohub,2013-01-06 08:00:00,
2013-01-06 02:05:00,33.3,31.1,30.29,SE,134,0.0,0.0,92,0.00,,,0.00,meteohub,2013-01-06 08:05:00,
2013-01-06 02:10:00,33.1,31.1,30.28,SE,134,0.0,0.0,92,0.00,,,0.00,meteohub,2013-01-06 08:10:00,
2013-01-06 02:15:00,33.1,31.1,30.28,SE,134,1.0,0.0,92,0.00,,,0.00,meteohub,2013-01-06 08:15:00,
2013-01-06 02:21:00,33.3,31.5,30.28,SE,134,0.0,3.0,93,0.00,,,0.00,meteohub,2013-01-06 08:21:00,
2013-01-06 02:26:00,33.3,31.5,30.27,SE,134,0.0,3.0,93,0.00,,,0.00,meteohub,2013-01-06 08:26:00,
2013-01-06 02:31:00,33.1,31.3,30.28,SE,134,0.0,3.0,93,0.00,,,0.00,meteohub,2013-01-06 08:31:00,
2013-01-06 02:36:00,33.1,31.3,30.28,SE,134,0.0,2.0,93,0.00,,,0.00,meteohub,2013-01-06 08:36:00,
2013-01-06 02:41:00,33.1,31.3,30.28,SE,134,0.0,0.0,93,0.00,,,0.00,meteohub,2013-01-06 08:41:00,
2013-01-06 02:47:00,32.9,31.1,30.28,SE,134,0.0,0.0,93,0.00,,,0.00,meteohub,2013-01-06 08:47:00,
2013-01-06 02:52:00,32.7,30.9,30.28,SE,134,0.0,0.0,93,0.00,,,0.00,meteohub,2013-01-06 08:52:00,
2013-01-06 02:57:00,32.7,30.9,30.28,SE,134,0.0,0.0,93,0.00,,,0.00,meteohub,2013-01-06 08:57:00,
2013-01-06 03:02:00,32.5,30.7,30.28,SE,134,0.0,0.0,93,0.00,,,0.00,meteohub,2013-01-06 09:02:00,
2013-01-06 03:07:00,32.7,30.9,30.28,SE,134,0.0,0.0,93,0.00,,,0.00,meteohub,2013-01-06 09:07:00,
2013-01-06 03:12:00,32.7,30.9,30.28,SE,134,0.0,0.0,93,0.00,,,0.00,meteohub,2013-01-06 09:12:00,
2013-01-06 03:17:00,32.7,31.1,30.28,SE,134,0.0,0.0,94,0.00,,,0.00,meteohub,2013-01-06 09:17:00,
2013-01-06 03:22:00,32.7,31.1,30.28,SE,134,0.0,0.0,94,0.00,,,0.00,meteohub,2013-01-06 09:22:00,
2013-01-06 03:27:00,32.7,31.1,30.28,SE,134,0.0,0.0,94,0.00,,,0.00,meteohub,2013-01-06 09:27:00,
2013-01-06 03:32:00,32.9,31.3,30.28,SE,134,0.0,1.0,94,0.00,,,0.00,meteohub,2013-01-06 09:32:00,
2013-01-06 03:37:00,32.9,31.3,30.28,SE,134,0.0,1.0,94,0.00,,,0.00,meteohub,2013-01-06 09:37:00,
2013-01-06 03:42:00,32.9,31.3,30.29,SE,134,0.0,1.0,94,0.00,,,0.00,meteohub,2013-01-06 09:42:00,
2013-01-06 03:47:00,32.9,31.3,30.29,SE,134,0.0,1.0,94,0.00,,,0.00,meteohub,2013-01-06 09:47:00,
2013-01-06 03:52:00,32.7,31.1,30.29,SE,134,0.0,1.0,94,0.00,,,0.00,meteohub,2013-01-06 09:52:00,
2013-01-06 03:58:00,32.7,31.1,30.29,SE,134,0.0,0.0,94,0.00,,,0.00,meteohub,2013-01-06 09:58:00,
2013-01-06 04:03:00,32.7,31.1,30.29,SE,134,0.0,0.0,94,0.00,,,0.00,meteohub,2013-01-06 10:03:00,
2013-01-06 04:08:00,32.7,31.1,30.29,ESE,117,0.0,2.0,94,0.00,,,0.00,meteohub,2013-01-06 10:08:00,
2013-01-06 04:13:00,32.9,31.3,30.29,ESE,117,0.0,2.0,94,0.00,,,0.00,meteohub,2013-01-06 10:13:00,
2013-01-06 04:18:00,32.9,31.6,30.29,ESE,117,0.0,2.0,95,0.00,,,0.00,meteohub,2013-01-06 10:18:00,
2013-01-06 04:24:00,33.1,31.5,30.29,ESE,117,0.0,1.0,94,0.00,,,0.00,meteohub,2013-01-06 10:24:00,
2013-01-06 04:29:00,33.1,31.8,30.29,ESE,117,0.0,1.0,95,0.00,,,0.00,meteohub,2013-01-06 10:29:00,
2013-01-06 04:34:00,33.1,31.5,30.29,ESE,117,0.0,0.0,94,0.00,,,0.00,meteohub,2013-01-06 10:34:00,
2013-01-06 04:39:00,33.1,31.8,30.29,ESE,117,0.0,0.0,95,0.00,,,0.00,meteohub,2013-01-06 10:39:00,
2013-01-06 04:44:00,33.1,31.5,30.29,ESE,117,0.0,0.0,94,0.00,,,0.00,meteohub,2013-01-06 10:44:00,
2013-01-06 04:50:00,33.1,31.5,30.29,ESE,117,0.0,0.0,94,0.00,,,0.00,meteohub,2013-01-06 10:50:00,
2013-01-06 04:55:00,32.9,31.3,30.29,ESE,117,0.0,0.0,94,0.00,,,0.00,meteohub,2013-01-06 10:55:00,
2013-01-06 05:00:00,32.7,31.1,30.29,ESE,117,0.0,0.0,94,0.00,,,0.00,meteohub,2013-01-06 11:00:00,
2013-01-06 05:06:00,32.7,31.1,30.29,ESE,117,0.0,0.0,94,0.00,,,0.00,meteohub,2013-01-06 11:06:00,
2013-01-06 05:11:00,32.5,30.9,30.29,ESE,117,0.0,0.0,94,0.00,,,0.00,meteohub,2013-01-06 11:11:00,
2013-01-06 05:16:00,32.5,30.9,30.29,ESE,117,0.0,0.0,94,0.00,,,0.00,meteohub,2013-01-06 11:16:00,
2013-01-06 05:21:00,32.5,30.9,30.29,ESE,117,0.0,0.0,94,0.00,,,0.00,meteohub,2013-01-06 11:21:00,
2013-01-06 05:27:00,32.4,30.7,30.29,ESE,117,0.0,0.0,94,0.00,,,0.00,meteohub,2013-01-06 11:27:00,
2013-01-06 05:32:00,32.4,30.7,30.30,ESE,117,0.0,0.0,94,0.00,,,0.00,meteohub,2013-01-06 11:32:00,
2013-01-06 05:37:00,32.2,30.6,30.30,ESE,117,0.0,0.0,94,0.00,,,0.00,meteohub,2013-01-06 11:37:00,
2013-01-06 05:42:00,32.2,30.6,30.30,ESE,117,0.0,0.0,94,0.00,,,0.00,meteohub,2013-01-06 11:42:00,
2013-01-06 05:47:00,32.0,30.6,30.30,ESE,117,0.0,0.0,94,0.00,,,0.00,meteohub,2013-01-06 11:47:00,
2013-01-06 05:52:00,31.8,30.4,30.30,ESE,117,0.0,0.0,94,0.00,,,0.00,meteohub,2013-01-06 11:52:00,
2013-01-06 05:57:00,31.6,30.2,30.30,ESE,117,0.0,0.0,94,0.00,,,0.00,meteohub,2013-01-06 11:57:00,
2013-01-06 06:02:00,31.6,30.2,30.30,ESE,117,0.0,0.0,94,0.00,,,0.00,meteohub,2013-01-06 12:02:00,
2013-01-06 06:07:00,31.5,30.0,30.30,ESE,117,0.0,0.0,94,0.00,,,0.00,meteohub,2013-01-06 12:07:00,
2013-01-06 06:12:00,31.5,30.0,30.30,ESE,117,0.0,0.0,94,0.00,,,0.00,meteohub,2013-01-06 12:12:00,
2013-01-06 06:17:00,31.3,29.8,30.31,ESE,117,0.0,0.0,94,0.00,,,0.00,meteohub,2013-01-06 12:17:00,
2013-01-06 06:22:00,31.1,29.7,30.31,ESE,117,0.0,0.0,94,0.00,,,0.00,meteohub,2013-01-06 12:22:00,
2013-01-06 06:27:00,31.1,29.7,30.31,ESE,117,0.0,0.0,94,0.00,,,0.00,meteohub,2013-01-06 12:27:00,
2013-01-06 06:32:00,31.1,29.7,30.32,ESE,117,0.0,0.0,94,0.00,,,0.00,meteohub,2013-01-06 12:32:00,
2013-01-06 06:37:00,31.1,29.7,30.32,ESE,117,0.0,0.0,94,0.00,,,0.00,meteohub,2013-01-06 12:37:00,
2013-01-06 06:43:00,30.9,29.5,30.32,ESE,117,0.0,0.0,94,0.00,,,0.00,meteohub,2013-01-06 12:43:00,
2013-01-06 06:48:00,31.1,29.7,30.32,ESE,117,0.0,0.0,94,0.00,,,0.00,meteohub,2013-01-06 12:48:00,
2013-01-06 06:53:00,31.3,29.8,30.32,ESE,117,0.0,0.0,94,0.00,,,0.00,meteohub,2013-01-06 12:53:00,
2013-01-06 06:59:00,31.3,30.0,30.32,ESE,114,0.0,1.0,95,0.00,,,0.00,meteohub,2013-01-06 12:59:00,
2013-01-06 07:04:00,31.5,30.2,30.33,ESE,114,0.0,1.0,95,0.00,,,0.00,meteohub,2013-01-06 13:04:00,
2013-01-06 07:09:00,31.6,30.4,30.33,ESE,108,0.0,1.0,95,0.00,,,0.00,meteohub,2013-01-06 13:09:00,
2013-01-06 07:14:00,31.8,30.6,30.33,East,88,0.0,2.0,95,0.00,,,0.00,meteohub,2013-01-06 13:14:00,
2013-01-06 07:19:00,32.2,30.9,30.34,ENE,77,0.0,2.0,95,0.00,,,0.00,meteohub,2013-01-06 13:19:00,
2013-01-06 07:25:00,32.2,30.9,30.34,ENE,57,0.0,2.0,95,0.00,,,0.00,meteohub,2013-01-06 13:25:00,
2013-01-06 07:30:00,32.4,31.1,30.34,NE,51,0.0,2.0,95,0.00,,,0.00,meteohub,2013-01-06 13:30:00,
2013-01-06 07:35:00,32.5,31.3,30.34,NE,46,0.0,2.0,95,0.00,,,0.00,meteohub,2013-01-06 13:35:00,
2013-01-06 07:40:00,32.7,31.5,30.34,NW,326,0.0,2.0,95,0.00,,,0.00,meteohub,2013-01-06 13:40:00,
2013-01-06 07:45:00,33.1,31.5,30.34,NNW,343,0.0,2.0,94,0.00,,,0.00,meteohub,2013-01-06 13:45:00,
2013-01-06 07:51:00,33.1,31.5,30.35,North,350,0.0,3.0,94,0.00,,,0.00,meteohub,2013-01-06 13:51:00,
2013-01-06 07:56:00,33.3,31.1,30.35,NNW,328,0.0,3.0,92,0.00,,,0.00,meteohub,2013-01-06 13:56:00,
2013-01-06 08:01:00,33.4,31.1,30.35,NW,309,0.0,3.0,91,0.00,,,0.00,meteohub,2013-01-06 14:01:00,
2013-01-06 08:06:00,33.6,31.3,30.35,NW,309,1.0,2.0,91,0.00,,,0.00,meteohub,2013-01-06 14:06:00,
2013-01-06 08:12:00,33.6,30.9,30.35,North,0,1.0,2.0,90,0.00,,,0.00,meteohub,2013-01-06 14:12:00,
2013-01-06 08:17:00,34.0,31.3,30.35,North,0,0.0,3.0,90,0.00,,,0.00,meteohub,2013-01-06 14:17:00,
2013-01-06 08:22:00,34.5,31.3,30.35,North,355,1.0,3.0,88,0.00,,,0.00,meteohub,2013-01-06 14:22:00,
2013-01-06 08:27:00,34.5,31.1,30.36,North,355,0.0,3.0,87,0.00,,,0.00,meteohub,2013-01-06 14:27:00,
2013-01-06 08:32:00,34.9,31.5,30.36,NW,323,0.0,3.0,87,0.00,,,0.00,meteohub,2013-01-06 14:32:00,
2013-01-06 08:37:00,34.9,31.1,30.36,NNW,344,2.0,3.0,86,0.00,,,0.00,meteohub,2013-01-06 14:37:00,
2013-01-06 08:42:00,35.1,31.3,30.36,NW,322,0.0,3.0,86,0.00,,,0.00,meteohub,2013-01-06 14:42:00,
2013-01-06 08:47:00,35.4,31.3,30.36,North,5,1.0,4.0,85,0.00,,,0.00,meteohub,2013-01-06 14:47:00,
2013-01-06 08:52:00,35.8,31.5,30.36,North,351,1.0,4.0,84,0.00,,,0.00,meteohub,2013-01-06 14:52:00,
2013-01-06 08:57:00,36.3,31.6,30.37,North,5,1.0,4.0,83,0.00,,,0.00,meteohub,2013-01-06 14:57:00,
2013-01-06 09:02:00,37.0,32.0,30.37,NNW,339,1.0,4.0,82,0.00,,,0.00,meteohub,2013-01-06 15:02:00,
2013-01-06 09:07:00,37.6,32.4,30.37,NNE,13,0.0,5.0,81,0.00,,,0.00,meteohub,2013-01-06 15:07:00,
2013-01-06 09:12:00,37.9,32.4,30.37,North,5,1.0,5.0,80,0.00,,,0.00,meteohub,2013-01-06 15:12:00,
2013-01-06 09:17:00,38.7,32.0,30.37,NNE,15,1.0,6.0,77,0.00,,,0.00,meteohub,2013-01-06 15:17:00,
2013-01-06 09:22:00,39.0,32.7,30.37,North,11,2.0,6.0,78,0.00,,,0.00,meteohub,2013-01-06 15:22:00,
2013-01-06 09:27:00,39.9,32.9,30.37,NNE,22,1.0,6.0,76,0.00,,,0.00,meteohub,2013-01-06 15:27:00,
2013-01-06 09:32:00,40.8,33.3,30.38,North,11,5.0,5.0,74,0.00,,,0.00,meteohub,2013-01-06 15:32:00,
2013-01-06 09:37:00,41.4,33.1,30.38,NNE,20,3.0,6.0,72,0.00,,,0.00,meteohub,2013-01-06 15:37:00,
2013-01-06 09:42:00,41.7,32.7,30.38,NNE,12,2.0,9.0,70,0.00,,,0.00,meteohub,2013-01-06 15:42:00,
2013-01-06 09:47:00,42.1,32.4,30.38,NNE,22,4.0,9.0,68,0.00,,,0.00,meteohub,2013-01-06 15:47:00,
2013-01-06 09:53:00,42.6,32.7,30.38,North,5,1.0,9.0,68,0.00,,,0.00,meteohub,2013-01-06 15:53:00,
2013-01-06 09:58:00,43.2,32.9,30.38,NNE,32,3.0,7.0,67,0.00,,,0.00,meteohub,2013-01-06 15:58:00,
2013-01-06 10:03:00,43.5,32.9,30.38,NNE,17,1.0,7.0,66,0.00,,,0.00,meteohub,2013-01-06 16:03:00,
2013-01-06 10:08:00,44.2,33.3,30.38,NNW,346,5.0,7.0,65,0.00,,,0.00,meteohub,2013-01-06 16:08:00,
2013-01-06 10:13:00,44.4,33.1,30.38,NNE,17,6.0,6.0,64,0.00,,,0.00,meteohub,2013-01-06 16:13:00,
2013-01-06 10:19:00,44.8,33.3,30.38,North,5,2.0,8.0,64,0.00,,,0.00,meteohub,2013-01-06 16:19:00,
2013-01-06 10:24:00,45.1,33.3,30.38,NNE,24,3.0,8.0,63,0.00,,,0.00,meteohub,2013-01-06 16:24:00,
2013-01-06 10:29:00,45.3,33.8,30.38,North,9,0.0,6.0,64,0.00,,,0.00,meteohub,2013-01-06 16:29:00,
2013-01-06 10:34:00,45.7,33.1,30.38,NNE,15,4.0,7.0,61,0.00,,,0.00,meteohub,2013-01-06 16:34:00,
2013-01-06 10:39:00,46.0,32.9,30.38,NNE,24,1.0,8.0,60,0.00,,,0.00,meteohub,2013-01-06 16:39:00,
2013-01-06 10:45:00,46.8,33.6,30.38,NNW,346,1.0,8.0,60,0.00,,,0.00,meteohub,2013-01-06 16:45:00,
2013-01-06 10:50:00,46.9,33.8,30.38,NNE,18,0.0,8.0,60,0.00,,,0.00,meteohub,2013-01-06 16:50:00,
2013-01-06 10:55:00,47.5,33.1,30.38,NNE,20,2.0,7.0,57,0.00,,,0.00,meteohub,2013-01-06 16:55:00,
2013-01-06 11:00:00,47.7,33.3,30.38,NNE,16,3.0,7.0,57,0.00,,,0.00,meteohub,2013-01-06 17:00:00,
2013-01-06 11:06:00,47.8,32.5,30.38,NE,35,2.0,9.0,55,0.00,,,0.00,meteohub,2013-01-06 17:06:00,
2013-01-06 11:11:00,48.0,33.1,30.38,NNE,28,4.0,9.0,56,0.00,,,0.00,meteohub,2013-01-06 17:11:00,
2013-01-06 11:16:00,48.4,33.4,30.38,NNE,13,5.0,9.0,56,0.00,,,0.00,meteohub,2013-01-06 17:16:00,
2013-01-06 11:21:00,48.7,33.3,30.38,NNE,13,4.0,9.0,55,0.00,,,0.00,meteohub,2013-01-06 17:21:00,
2013-01-06 11:26:00,48.7,31.8,30.38,North,5,3.0,9.0,52,0.00,,,0.00,meteohub,2013-01-06 17:26:00,
2013-01-06 11:32:00,48.7,31.8,30.38,NNE,18,2.0,9.0,52,0.00,,,0.00,meteohub,2013-01-06 17:32:00,
2013-01-06 11:37:00,48.9,32.0,30.38,NNE,32,3.0,9.0,52,0.00,,,0.00,meteohub,2013-01-06 17:37:00,
2013-01-06 11:42:00,49.5,32.5,30.37,NNE,22,5.0,9.0,52,0.00,,,0.00,meteohub,2013-01-06 17:42:00,
2013-01-06 11:47:00,49.5,32.0,30.37,NNE,28,3.0,7.0,51,0.00,,,0.00,meteohub,2013-01-06 17:47:00,
2013-01-06 11:53:00,49.6,32.7,30.37,NNE,15,4.0,7.0,52,0.00,,,0.00,meteohub,2013-01-06 17:53:00,
2013-01-06 11:58:00,50.2,32.7,30.37,NE,35,4.0,8.0,51,0.00,,,0.00,meteohub,2013-01-06 17:58:00,
2013-01-06 12:03:00,50.5,32.5,30.37,NNE,19,2.0,8.0,50,0.00,,,0.00,meteohub,2013-01-06 18:03:00,
2013-01-06 12:08:00,51.1,32.0,30.36,North,11,3.0,8.0,48,0.00,,,0.00,meteohub,2013-01-06 18:08:00,
2013-01-06 12:14:00,51.4,32.9,30.36,North,10,2.0,7.0,49,0.00,,,0.00,meteohub,2013-01-06 18:14:00,
2013-01-06 12:19:00,51.6,32.5,30.36,NNE,16,0.0,8.0,48,0.00,,,0.00,meteohub,2013-01-06 18:19:00,
2013-01-06 12:24:00,52.0,31.8,30.35,NNE,26,1.0,8.0,46,0.00,,,0.00,meteohub,2013-01-06 18:24:00,
2013-01-06 12:29:00,52.0,31.8,30.35,NNE,32,1.0,8.0,46,0.00,,,0.00,meteohub,2013-01-06 18:29:00,
2013-01-06 12:35:00,52.3,32.7,30.35,North,355,2.0,8.0,47,0.00,,,0.00,meteohub,2013-01-06 18:35:00,
2013-01-06 12:40:00,52.9,32.7,30.34,NNE,29,2.0,8.0,46,0.00,,,0.00,meteohub,2013-01-06 18:40:00,
2013-01-06 12:45:00,53.1,32.4,30.34,NNW,348,0.0,6.0,45,0.00,,,0.00,meteohub,2013-01-06 18:45:00,
2013-01-06 12:50:00,53.4,32.5,30.34,NNE,20,2.0,8.0,45,0.00,,,0.00,meteohub,2013-01-06 18:50:00,
2013-01-06 12:56:00,53.2,32.4,30.33,North,5,0.0,8.0,45,0.00,,,0.00,meteohub,2013-01-06 18:56:00,
2013-01-06 13:01:00,54.0,33.1,30.33,North,10,3.0,7.0,45,0.00,,,0.00,meteohub,2013-01-06 19:01:00,
2013-01-06 13:06:00,54.3,32.9,30.33,North,9,0.0,6.0,44,0.00,,,0.00,meteohub,2013-01-06 19:06:00,
2013-01-06 13:11:00,54.5,32.5,30.33,NNE,25,3.0,6.0,43,0.00,,,0.00,meteohub,2013-01-06 19:11:00,
2013-01-06 13:17:00,54.7,32.5,30.32,NNE,15,2.0,6.0,43,0.00,,,0.00,meteohub,2013-01-06 19:17:00,
2013-01-06 13:22:00,54.7,32.0,30.32,North,349,0.0,6.0,42,0.00,,,0.00,meteohub,2013-01-06 19:22:00,
2013-01-06 13:27:00,54.9,32.7,30.32,NNW,335,2.0,6.0,43,0.00,,,0.00,meteohub,2013-01-06 19:27:00,
2013-01-06 13:32:00,55.2,31.3,30.32,NNW,332,4.0,8.0,40,0.00,,,0.00,meteohub,2013-01-06 19:32:00,
2013-01-06 13:37:00,55.4,31.5,30.32,NNE,16,3.0,8.0,40,0.00,,,0.00,meteohub,2013-01-06 19:37:00,
2013-01-06 13:42:00,55.4,32.0,30.32,NNE,15,3.0,8.0,41,0.00,,,0.00,meteohub,2013-01-06 19:42:00,
2013-01-06 13:47:00,55.6,32.9,30.32,NNW,329,1.0,8.0,42,0.00,,,0.00,meteohub,2013-01-06 19:47:00,
2013-01-06 13:52:00,55.8,32.4,30.31,NNE,17,1.0,8.0,41,0.00,,,0.00,meteohub,2013-01-06 19:52:00,
2013-01-06 13:58:00,55.8,31.8,30.31,NNE,18,0.0,8.0,40,0.00,,,0.00,meteohub,2013-01-06 19:58:00,
2013-01-06 14:03:00,55.6,31.6,30.31,North,0,0.0,8.0,40,0.00,,,0.00,meteohub,2013-01-06 20:03:00,
2013-01-06 14:10:00,55.6,32.2,30.31,ENE,59,0.0,8.0,41,0.00,,,0.00,meteohub,2013-01-06 20:10:00,
2013-01-06 14:12:00,55.9,32.5,30.31,NNE,33,2.0,6.0,41,0.00,,,0.00,meteohub,2013-01-06 20:12:00,
2013-01-06 14:13:00,55.9,31.3,30.31,NNE,30,0.0,6.0,39,0.00,,,0.00,meteohub,2013-01-06 20:13:00,
2013-01-06 14:18:00,56.5,31.8,30.31,NE,36,0.0,6.0,39,0.00,,,0.00,meteohub,2013-01-06 20:18:00,
2013-01-06 14:23:00,56.7,30.7,30.31,NE,44,5.0,8.0,37,0.00,,,0.00,meteohub,2013-01-06 20:23:00,
2013-01-06 14:28:00,56.7,30.7,30.31,North,355,1.0,10.0,37,0.00,,,0.00,meteohub,2013-01-06 20:28:00,
2013-01-06 14:34:00,57.0,30.9,30.31,NNW,343,1.0,10.0,37,0.00,,,0.00,meteohub,2013-01-06 20:34:00,
2013-01-06 14:39:00,57.2,31.1,30.31,NNW,331,0.0,10.0,37,0.00,,,0.00,meteohub,2013-01-06 20:39:00,
2013-01-06 14:44:00,57.0,31.6,30.30,NW,323,5.0,9.0,38,0.00,,,0.00,meteohub,2013-01-06 20:44:00,
2013-01-06 14:50:00,57.2,31.1,30.31,NNE,12,4.0,8.0,37,0.00,,,0.00,meteohub,2013-01-06 20:50:00,
2013-01-06 14:55:00,57.2,31.1,30.30,NNW,336,6.0,9.0,37,0.00,,,0.00,meteohub,2013-01-06 20:55:00,
2013-01-06 15:00:00,57.2,31.1,30.31,West,278,0.0,9.0,37,0.00,,,0.00,meteohub,2013-01-06 21:00:00,
2013-01-06 15:02:00,57.4,30.6,30.31,NNE,17,2.0,9.0,36,0.00,,,0.00,meteohub,2013-01-06 21:02:00,
2013-01-06 15:07:00,57.6,30.7,30.31,NNE,14,4.0,8.0,36,0.00,,,0.00,meteohub,2013-01-06 21:07:00,
2013-01-06 15:13:00,57.4,30.6,30.30,NNW,343,4.0,8.0,36,0.00,,,0.00,meteohub,2013-01-06 21:13:00,
2013-01-06 15:18:00,57.4,30.0,30.30,NNE,26,1.0,8.0,35,0.00,,,0.00,meteohub,2013-01-06 21:18:00,
2013-01-06 15:23:00,57.4,29.3,30.31,NNE,27,3.0,8.0,34,0.00,,,0.00,meteohub,2013-01-06 21:23:00,
2013-01-06 15:28:00,57.2,29.1,30.30,NNW,348,3.0,8.0,34,0.00,,,0.00,meteohub,2013-01-06 21:28:00,
2013-01-06 15:33:00,57.2,29.1,30.31,North,0,1.0,8.0,34,0.00,,,0.00,meteohub,2013-01-06 21:33:00,
2013-01-06 15:39:00,57.0,28.9,30.31,NNE,30,5.0,8.0,34,0.00,,,0.00,meteohub,2013-01-06 21:39:00,
2013-01-06 15:44:00,56.8,28.0,30.31,NNE,24,5.0,8.0,33,0.00,,,0.00,meteohub,2013-01-06 21:44:00,
2013-01-06 15:49:00,56.5,28.4,30.31,NNE,17,4.0,8.0,34,0.00,,,0.00,meteohub,2013-01-06 21:49:00,
2013-01-06 15:54:00,56.5,27.7,30.31,NNW,338,2.0,8.0,33,0.00,,,0.00,meteohub,2013-01-06 21:54:00,
2013-01-06 15:59:00,56.3,28.2,30.31,NW,318,3.0,8.0,34,0.00,,,0.00,meteohub,2013-01-06 21:59:00,
2013-01-06 16:05:00,56.1,28.0,30.31,NE,40,2.0,8.0,34,0.00,,,0.00,meteohub,2013-01-06 22:05:00,
2013-01-06 16:10:00,56.3,28.2,30.30,NNE,23,5.0,7.0,34,0.00,,,0.00,meteohub,2013-01-06 22:10:00,
2013-01-06 16:15:00,56.1,28.0,30.30,NNE,20,2.0,6.0,34,0.00,,,0.00,meteohub,2013-01-06 22:15:00,
2013-01-06 16:20:00,56.1,28.0,30.30,NNE,29,5.0,6.0,34,0.00,,,0.00,meteohub,2013-01-06 22:20:00,
2013-01-06 16:25:00,55.9,27.3,30.30,NE,35,1.0,6.0,33,0.00,,,0.00,meteohub,2013-01-06 22:25:00,
2013-01-06 16:31:00,55.9,28.0,30.30,NNE,31,4.0,8.0,34,0.00,,,0.00,meteohub,2013-01-06 22:31:00,
2013-01-06 16:36:00,55.8,27.9,30.30,NE,42,3.0,8.0,34,0.00,,,0.00,meteohub,2013-01-06 22:36:00,
2013-01-06 16:41:00,55.4,28.2,30.30,NNE,32,1.0,5.0,35,0.00,,,0.00,meteohub,2013-01-06 22:41:00,
2013-01-06 16:46:00,55.2,28.8,30.30,NNE,33,2.0,5.0,36,0.00,,,0.00,meteohub,2013-01-06 22:46:00,
2013-01-06 16:52:00,55.2,29.5,30.30,NNE,15,4.0,5.0,37,0.00,,,0.00,meteohub,2013-01-06 22:52:00,
2013-01-06 16:57:00,55.0,28.6,30.30,NE,46,0.0,5.0,36,0.00,,,0.00,meteohub,2013-01-06 22:57:00,
2013-01-06 17:02:00,54.7,28.2,30.30,NE,35,1.0,6.0,36,0.00,,,0.00,meteohub,2013-01-06 23:02:00,
2013-01-06 17:07:00,54.3,27.9,30.30,NE,36,0.0,6.0,36,0.00,,,0.00,meteohub,2013-01-06 23:07:00,
2013-01-06 17:12:00,54.0,28.2,30.30,NE,36,1.0,5.0,37,0.00,,,0.00,meteohub,2013-01-06 23:12:00,
2013-01-06 17:17:00,53.8,28.0,30.30,NE,36,1.0,3.0,37,0.00,,,0.00,meteohub,2013-01-06 23:17:00,
2013-01-06 17:22:00,53.1,28.0,30.30,NE,43,2.0,4.0,38,0.00,,,0.00,meteohub,2013-01-06 23:22:00,
2013-01-06 17:27:00,52.5,28.2,30.30,NE,43,0.0,4.0,39,0.00,,,0.00,meteohub,2013-01-06 23:27:00,
2013-01-06 17:32:00,52.2,28.6,30.30,NE,43,0.0,4.0,40,0.00,,,0.00,meteohub,2013-01-06 23:32:00,
2013-01-06 17:37:00,51.6,28.8,30.30,NE,43,0.0,3.0,41,0.00,,,0.00,meteohub,2013-01-06 23:37:00,
2013-01-06 17:43:00,51.1,28.8,30.30,NE,43,0.0,0.0,42,0.00,,,0.00,meteohub,2013-01-06 23:43:00,
2013-01-06 17:48:00,50.5,28.9,30.30,NE,43,0.0,0.0,43,0.00,,,0.00,meteohub,2013-01-06 23:48:00,
2013-01-06 17:53:00,50.2,28.6,30.30,NE,43,0.0,0.0,43,0.00,,,0.00,meteohub,2013-01-06 23:53:00,
2013-01-06 17:58:00,49.8,28.8,30.30,NE,43,0.0,0.0,44,0.00,,,0.00,meteohub,2013-01-06 23:58:00,
2013-01-06 18:04:00,49.5,28.4,30.30,NE,43,0.0,1.0,44,0.00,,,0.00,meteohub,2013-01-07 00:04:00,
2013-01-06 18:09:00,49.3,28.8,30.30,NE,43,0.0,1.0,45,0.00,,,0.00,meteohub,2013-01-07 00:09:00,
2013-01-06 18:14:00,48.7,28.9,30.30,NE,43,0.0,1.0,46,0.00,,,0.00,meteohub,2013-01-07 00:14:00,
2013-01-06 18:19:00,48.4,28.6,30.30,NE,43,0.0,1.0,46,0.00,,,0.00,meteohub,2013-01-07 00:19:00,
2013-01-06 18:25:00,48.0,28.8,30.30,NE,43,0.0,1.0,47,0.00,,,0.00,meteohub,2013-01-07 00:25:00,
2013-01-06 18:30:00,47.7,28.9,30.30,NE,43,0.0,1.0,48,0.00,,,0.00,meteohub,2013-01-07 00:30:00,
2013-01-06 18:35:00,47.1,28.9,30.31,NE,43,0.0,1.0,49,0.00,,,0.00,meteohub,2013-01-07 00:35:00,
2013-01-06 18:41:00,46.6,28.9,30.31,NE,43,0.0,1.0,50,0.00,,,0.00,meteohub,2013-01-07 00:41:00,
2013-01-06 18:46:00,46.0,29.5,30.31,NE,43,0.0,0.0,52,0.00,,,0.00,meteohub,2013-01-07 00:46:00,
2013-01-06 18:51:00,45.5,29.8,30.31,NE,43,0.0,0.0,54,0.00,,,0.00,meteohub,2013-01-07 00:51:00,
2013-01-06 18:56:00,44.6,30.4,30.31,NE,43,0.0,0.0,57,0.00,,,0.00,meteohub,2013-01-07 00:56:00,
2013-01-06 19:02:00,44.1,30.7,30.31,NE,43,0.0,0.0,59,0.00,,,0.00,meteohub,2013-01-07 01:02:00,
2013-01-06 19:07:00,43.5,30.9,30.32,NE,43,0.0,0.0,61,0.00,,,0.00,meteohub,2013-01-07 01:07:00,
2013-01-06 19:12:00,43.0,30.0,30.31,NE,43,0.0,0.0,60,0.00,,,0.00,meteohub,2013-01-07 01:12:00,
2013-01-06 19:17:00,43.0,30.0,30.32,NE,43,0.0,0.0,60,0.00,,,0.00,meteohub,2013-01-07 01:17:00,
2013-01-06 19:22:00,43.3,29.5,30.32,NE,43,0.0,0.0,58,0.00,,,0.00,meteohub,2013-01-07 01:22:00,
2013-01-06 19:27:00,43.5,30.2,30.32,NE,43,0.0,0.0,59,0.00,,,0.00,meteohub,2013-01-07 01:27:00,
2013-01-06 19:32:00,43.5,30.2,30.32,NE,43,0.0,1.0,59,0.00,,,0.00,meteohub,2013-01-07 01:32:00,
2013-01-06 19:37:00,43.2,29.8,30.32,NE,43,0.0,1.0,59,0.00,,,0.00,meteohub,2013-01-07 01:37:00,
2013-01-06 19:42:00,42.4,30.4,30.32,NE,43,0.0,0.0,62,0.00,,,0.00,meteohub,2013-01-07 01:42:00,
2013-01-06 19:47:00,41.9,30.6,30.32,NE,43,0.0,0.0,64,0.00,,,0.00,meteohub,2013-01-07 01:47:00,
2013-01-06 19:52:00,41.4,30.6,30.33,NE,43,0.0,0.0,65,0.00,,,0.00,meteohub,2013-01-07 01:52:00,
2013-01-06 19:57:00,40.8,30.4,30.33,NE,43,0.0,0.0,66,0.00,,,0.00,meteohub,2013-01-07 01:57:00,
2013-01-06 20:02:00,40.5,30.4,30.33,NE,43,0.0,0.0,67,0.00,,,0.00,meteohub,2013-01-07 02:02:00,
2013-01-06 20:07:00,40.3,30.9,30.33,NE,43,0.0,0.0,69,0.00,,,0.00,meteohub,2013-01-07 02:07:00,
2013-01-06 20:12:00,39.7,30.7,30.33,NE,43,0.0,0.0,70,0.00,,,0.00,meteohub,2013-01-07 02:12:00,
2013-01-06 20:18:00,39.6,30.6,30.33,NE,43,0.0,0.0,70,0.00,,,0.00,meteohub,2013-01-07 02:18:00,
2013-01-06 20:23:00,39.2,30.6,30.33,NE,43,0.0,0.0,71,0.00,,,0.00,meteohub,2013-01-07 02:23:00,
2013-01-06 20:28:00,39.2,30.9,30.33,NE,43,0.0,0.0,72,0.00,,,0.00,meteohub,2013-01-07 02:28:00,
2013-01-06 20:33:00,39.0,30.4,30.33,NE,43,0.0,0.0,71,0.00,,,0.00,meteohub,2013-01-07 02:33:00,
2013-01-06 20:38:00,38.8,30.6,30.34,NE,43,0.0,0.0,72,0.00,,,0.00,meteohub,2013-01-07 02:38:00,
2013-01-06 20:44:00,38.5,30.9,30.34,NE,43,0.0,0.0,74,0.00,,,0.00,meteohub,2013-01-07 02:44:00,
2013-01-06 20:49:00,38.1,30.6,30.34,NE,43,0.0,0.0,74,0.00,,,0.00,meteohub,2013-01-07 02:49:00,
2013-01-06 20:54:00,37.9,30.4,30.34,NE,43,0.0,0.0,74,0.00,,,0.00,meteohub,2013-01-07 02:54:00,
2013-01-06 20:59:00,37.8,30.6,30.34,NE,43,0.0,0.0,75,0.00,,,0.00,meteohub,2013-01-07 02:59:00,
2013-01-06 21:04:00,37.6,30.4,30.34,NE,43,0.0,0.0,75,0.00,,,0.00,meteohub,2013-01-07 03:04:00,
2013-01-06 21:10:00,37.2,30.4,30.34,NE,43,0.0,0.0,76,0.00,,,0.00,meteohub,2013-01-07 03:10:00,
2013-01-06 21:15:00,37.0,30.6,30.34,NE,43,0.0,0.0,77,0.00,,,0.00,meteohub,2013-01-07 03:15:00,
2013-01-06 21:20:00,36.7,30.6,30.34,NE,43,0.0,0.0,78,0.00,,,0.00,meteohub,2013-01-07 03:20:00,
2013-01-06 21:25:00,36.3,30.4,30.34,NE,43,0.0,0.0,79,0.00,,,0.00,meteohub,2013-01-07 03:25:00,
2013-01-06 21:31:00,36.1,30.2,30.34,NE,43,0.0,0.0,79,0.00,,,0.00,meteohub,2013-01-07 03:31:00,
2013-01-06 21:36:00,36.1,30.0,30.34,NE,43,0.0,0.0,78,0.00,,,0.00,meteohub,2013-01-07 03:36:00,
2013-01-06 21:41:00,36.0,29.8,30.34,NE,43,0.0,0.0,78,0.00,,,0.00,meteohub,2013-01-07 03:41:00,
2013-01-06 21:46:00,35.8,29.7,30.34,NE,43,0.0,0.0,78,0.00,,,0.00,meteohub,2013-01-07 03:46:00,
2013-01-06 21:51:00,35.8,29.7,30.34,NE,43,0.0,0.0,78,0.00,,,0.00,meteohub,2013-01-07 03:51:00,
2013-01-06 21:57:00,35.4,29.5,30.34,NE,43,0.0,0.0,79,0.00,,,0.00,meteohub,2013-01-07 03:57:00,
2013-01-06 22:02:00,35.2,29.1,30.34,NE,43,0.0,0.0,78,0.00,,,0.00,meteohub,2013-01-07 04:02:00,
2013-01-06 22:07:00,35.2,29.1,30.34,NE,43,0.0,0.0,78,0.00,,,0.00,meteohub,2013-01-07 04:07:00,
2013-01-06 22:12:00,35.2,29.1,30.33,NE,43,0.0,0.0,78,0.00,,,0.00,meteohub,2013-01-07 04:12:00,
2013-01-06 22:17:00,35.2,29.1,30.34,NE,43,0.0,0.0,78,0.00,,,0.00,meteohub,2013-01-07 04:17:00,
2013-01-06 22:22:00,35.1,28.9,30.34,NE,43,0.0,0.0,78,0.00,,,0.00,meteohub,2013-01-07 04:22:00,
2013-01-06 22:27:00,35.1,28.9,30.34,NE,43,0.0,0.0,78,0.00,,,0.00,meteohub,2013-01-07 04:27:00,
2013-01-06 22:32:00,34.9,29.1,30.34,NE,43,0.0,0.0,79,0.00,,,0.00,meteohub,2013-01-07 04:32:00,
2013-01-06 22:38:00,34.7,28.9,30.34,NE,43,0.0,0.0,79,0.00,,,0.00,meteohub,2013-01-07 04:38:00,
2013-01-06 22:43:00,34.5,28.9,30.33,NE,43,0.0,0.0,80,0.00,,,0.00,meteohub,2013-01-07 04:43:00,
2013-01-06 22:48:00,34.3,28.8,30.33,NE,43,0.0,0.0,80,0.00,,,0.00,meteohub,2013-01-07 04:48:00,
2013-01-06 22:53:00,34.3,28.8,30.33,NE,43,0.0,0.0,80,0.00,,,0.00,meteohub,2013-01-07 04:53:00,
2013-01-06 22:58:00,34.2,28.6,30.33,NE,43,0.0,0.0,80,0.00,,,0.00,meteohub,2013-01-07 04:58:00,
2013-01-06 23:00:00,34.2,28.6,30.33,NE,43,0.0,0.0,80,0.00,,,0.00,meteohub,2013-01-07 05:00:00,
2013-01-06 23:01:00,34.2,28.6,30.33,NE,43,0.0,0.0,80,0.00,,,0.00,meteohub,2013-01-07 05:01:00,
2013-01-06 23:02:00,34.2,28.6,30.33,NE,43,0.0,0.0,80,0.00,,,0.00,meteohub,2013-01-07 05:02:00,
2013-01-06 23:07:00,34.0,28.8,30.33,NE,43,0.0,0.0,81,0.00,,,0.00,meteohub,2013-01-07 05:07:00,
2013-01-06 23:13:00,33.8,28.6,30.33,NE,43,0.0,0.0,81,0.00,,,0.00,meteohub,2013-01-07 05:13:00,
2013-01-06 23:18:00,33.6,28.8,30.33,NE,43,0.0,0.0,82,0.00,,,0.00,meteohub,2013-01-07 05:18:00,
2013-01-06 23:23:00,33.4,28.6,30.33,NE,43,0.0,0.0,82,0.00,,,0.00,meteohub,2013-01-07 05:23:00,
2013-01-06 23:28:00,33.4,28.8,30.33,NE,43,0.0,0.0,83,0.00,,,0.00,meteohub,2013-01-07 05:28:00,
2013-01-06 23:34:00,33.3,28.6,30.32,NE,43,0.0,0.0,83,0.00,,,0.00,meteohub,2013-01-07 05:34:00,
2013-01-06 23:39:00,33.3,28.6,30.32,NE,43,0.0,0.0,83,0.00,,,0.00,meteohub,2013-01-07 05:39:00,
2013-01-06 23:44:00,33.1,28.4,30.32,NE,43,0.0,0.0,83,0.00,,,0.00,meteohub,2013-01-07 05:44:00,
2013-01-06 23:49:00,33.1,28.4,30.32,NE,43,0.0,0.0,83,0.00,,,0.00,meteohub,2013-01-07 05:49:00,
2013-01-06 23:54:00,32.9,28.6,30.32,NE,43,0.0,0.0,84,0.00,,,0.00,meteohub,2013-01-07 05:54:00,
2013-01-06 23:59:00,32.7,28.2,30.33,NE,43,0.0,0.0,83,0.00,,,0.00,meteohub,2013-01-07 05:59:00,